Regional Weather Roundup
Issued by NWS Burlington, VT

Current Version | Previous Version | Text Only | Print | Product List | Glossary Off
Versions: 1 2 3 4 5 6 7 8 9 10 11 12 13 14 15 16 17 18 19 20 21 22 23 24 25 26 27 28 29 30 31 32 33 34 35 36 37 38 39 40 41 42 43 44 45 46 47 48 49 50

864
ASUS41 KBTV 262030
RWRBTV
VERMONT REGIONAL WEATHER ROUNDUP
NATIONAL WEATHER SERVICE BURLINGTON VT
400 PM EDT WED APR 26 2017

NOTE: "FAIR" INDICATES FEW OR NO CLOUDS BELOW 12,000 FEET WITH NO
SIGNIFICANT WEATHER AND/OR OBSTRUCTIONS TO VISIBILITY.

* THESE REPORTS ARE NOT UNDER NWS QUALITY CONTROL AND/OR DO NOT
  REPORT WEATHER SUCH AS PRECIPITATION AND FOG.

VTZ001>019-262100-
_____VERMONT_____


CITY           SKY/WX    TMP DP  RH WIND       PRES   REMARKS
BURLINGTON     CLOUDY    70  55  59 SE16      29.80F
MONTPELIER     CLOUDY    57  55  93 CALM      29.89F
MORRISVILLE    CLOUDY    60  53  77 VRB5      29.86F
ST. JOHNSBURY*   N/A     60  57  89 MISG      29.86F
LYNDONVILLE*   CLOUDY    62  55  79 CALM      29.89F HAZE
RUTLAND*       CLOUDY    61  53  75 S9        29.83F
SPRINGFIELD    LGT RAIN  56  53  90 E3        29.86F FOG
HIGHGATE*      FAIR      69  58  66 CALM      29.79F
NEWPORT*       PTSUNNY   65  56  73 SE13      29.85F
BENNINGTON     MOSUNNY   68  54  60 SE8       29.78F
SUTTON*          N/A     61 N/A N/A MISG        N/A
MT. MANSFIELD*   N/A     50 N/A N/A E20         N/A

_____LAKE CHAMPLAIN_____


CITY           SKY/WX    TMP DP  RH WIND       PRES   REMARKS
BURTON ISLAND*   N/A     59  54  82 N2          N/A
COLCHESTER RF*   N/A     55  52  88 SW5         N/A
DIAMOND ISL*     N/A     64  54  68 W5          N/A

$$

NYZ007-026>031-035-052-083-087-262100-
_____NORTHERN NEW YORK_____


CITY           SKY/WX    TMP DP  RH WIND       PRES   REMARKS
PLATTSBURGH    CLOUDY    67  52  58 SE6       29.80F
SARANAC LAKE   CLOUDY    68  57  68 W6        29.78F
MASSENA        CLOUDY    64  56  75 NE13      29.80F
OGDENSBURG*    FAIR      71  57  62 N9        29.76F
POTSDAM*       CLOUDY    66  61  82 NE8       29.76F
WATERTOWN      MOSUNNY   73  59  61 W9        29.73F
ALBANY         PTSUNNY   69  57  65 VRB3      29.77F
GLENS FALLS    MOSUNNY   69  55  60 E10       29.78F

$$
NHZ002-005-011-262100-
_____NEW HAMPSHIRE_____


CITY           SKY/WX    TMP DP  RH WIND       PRES   REMARKS
LEBANON        CLOUDY    60  53  77 NE8       29.85F
KEENE          CLOUDY    57  54  89 N6        29.84F
MT WASHINGTON  FOG       45  45 100 SE38G46     N/A  VSB 1/16
PLYMOUTH       CLOUDY    55  52  91 CALM      29.89S
WHITEFIELD     CLOUDY    62  51  67 NE8       29.87F

$$

_____REGIONAL QUEBEC LOCATIONS_____


CITY           SKY/WX    TMP DP  RH WIND       PRES   REMARKS
MONTREAL       PTSUNNY   59  54  82 NE16      29.82F
QUEBEC CITY    DRIZZLE   48  48 100 NE6       29.93F FOG
SHERBROOKE     PTSUNNY   61  57  88 SE10G17   29.86F

_____REGIONAL ONTARIO LOCATIONS_____


CITY           SKY/WX    TMP DP  RH WIND       PRES   REMARKS
OTTAWA         PTSUNNY   63  54  72 NE13      29.79F

______KEY______
VSB  - VISIBILITY IN MILES
WCI  - WIND CHILL INDEX
HX   - HEAT INDEX
$$
NNNN




USA.gov is the U.S. government's official web portal to all federal, state and local government web resources and services.